Weather History for KMCW - August, 2012

Change the Weather History Date:

Friday, August 24, 2012

  Actual Average Record
Temperature  
Mean Temperature 77 °F 68 °F  
Max Temperature 91 °F 80 °F 99 °F (1948)
Min Temperature 63 °F 57 °F 37 °F (1934)
Degree Days  
Heating Degree Days 0 1  
Month to date heating degree days 31 19  
Since 1 June heating degree days 50 72  
Since 1 July heating degree days 31 28  
Cooling Degree Days 12 5  
Month to date cooling degree days 118 134  
Year to date cooling degree days 779 528  
Since 1 June cooling degree days 697 493  
Growing Degree Days 28 (Base 50)    
Moisture  
Dew Point 57 °F    
Average Humidity 55    
Maximum Humidity 73    
Minimum Humidity 36    
Precipitation  
Precipitation 0.00 in 0.13 in 2.55 in (1905)
Month to date precipitation 0.53 3.17  
Year to date precipitation 14.96 25.49  
Snow  
Snow 0.00 in 0.00 in - ()
Month to date snowfall 0.0 0.0  
Since 1 June snowfall 0.0 0.0  
Since 1 July snowfall 0.0 0.0  
Snow Depth 0.00 in    
Sea Level Pressure  
Sea Level Pressure 29.88 in    
Wind  
Wind Speed 12 mph (SSW)    
Max Wind Speed 21 mph    
Max Gust Speed 29 mph    
Visibility 10 miles    
Events      
T = Trace of Precipitation, MM = Missing Value Source: NWS Daily Summary

Daily Weather History Graph

Daily Weather History Graph

Search for Another Location

Airport or City:

Trip Planner

Search our weather history database for the weather conditions in past years. The results will help you decide how hot, cold, wet, or windy it might be!

Date:

Astronomy

Aug. 24, 2012 Rise Set
Actual Time 6:29 AM CDT 8:00 PM CDT
Civil Twilight 5:59 AM CDT 8:30 PM CDT
Nautical Twilight 5:23 AM CDT 9:06 PM CDT
Astronomical Twilight 4:44 AM CDT 9:44 PM CDT
Moon 2:36 PM CDT (8/24) No Moon Set
Length of Visible Light 14h 31m
Length of Day
13h 31m
First Quarter, 52% of the Moon is Illuminated
Aug 24
First Quarter
Aug 31
Full
Sep 8
Last Quarter
Sep 15
New
Sep 22
First Quarter

Hourly Weather History & Observations

Time (CDT) Temp. Heat Index Dew Point Humidity Pressure Visibility Wind Dir Wind Speed Gust Speed Precip Events Conditions
12:53 AM 73.0 °F - 54.0 °F 51% 29.85 in 10.0 mi SSW 8.1 mph - N/A   Mostly Cloudy
1:53 AM 75.9 °F - 50.0 °F 40% 29.84 in 10.0 mi SSW 13.8 mph - N/A   Clear
2:53 AM 73.9 °F - 50.0 °F 43% 29.83 in 10.0 mi SSW 12.7 mph - N/A   Clear
3:53 AM 73.9 °F - 50.0 °F 43% 29.84 in 10.0 mi SSW 11.5 mph 19.6 mph N/A   Clear
4:53 AM 73.9 °F - 53.1 °F 48% 29.85 in 10.0 mi SW 15.0 mph 21.9 mph N/A   Clear
5:53 AM 71.1 °F - 55.9 °F 59% 29.87 in 10.0 mi SSW 9.2 mph - N/A   Clear
6:53 AM 66.9 °F - 55.0 °F 66% 29.90 in 10.0 mi South 8.1 mph - N/A   Clear
7:53 AM 70.0 °F - 55.9 °F 61% 29.91 in 10.0 mi SSW 9.2 mph - N/A   Overcast
8:53 AM 75.9 °F - 60.1 °F 58% 29.91 in 10.0 mi SW 13.8 mph - N/A   Clear
9:53 AM 80.1 °F 81.5 °F 63.0 °F 56% 29.92 in 10.0 mi SW 12.7 mph - N/A   Clear
10:53 AM 82.0 °F 83.0 °F 62.1 °F 51% 29.91 in 10.0 mi SSW 11.5 mph - N/A   Clear
11:53 AM 84.9 °F 85.4 °F 62.1 °F 46% 29.90 in 10.0 mi SSW 12.7 mph 20.7 mph N/A   Clear
12:53 PM 88.0 °F 87.9 °F 61.0 °F 40% 29.88 in 10.0 mi SSW 12.7 mph 20.7 mph N/A   Clear
1:53 PM 89.1 °F 89.0 °F 61.0 °F 39% 29.88 in 10.0 mi South 13.8 mph 21.9 mph N/A   Clear
2:53 PM 89.1 °F 88.8 °F 60.1 °F 38% 29.87 in 10.0 mi SSW 19.6 mph 24.2 mph N/A   Partly Cloudy
3:53 PM 89.1 °F 88.8 °F 60.1 °F 38% 29.86 in 10.0 mi South 17.3 mph 28.8 mph N/A   Clear
4:53 PM 89.1 °F 88.8 °F 60.1 °F 38% 29.86 in 10.0 mi SSW 16.1 mph 21.9 mph N/A   Partly Cloudy
5:53 PM 87.1 °F 85.9 °F 57.0 °F 36% 29.87 in 10.0 mi South 13.8 mph - N/A   Clear
6:53 PM 82.9 °F 82.4 °F 57.0 °F 41% 29.88 in 10.0 mi South 12.7 mph - N/A   Clear
7:53 PM 78.1 °F - 57.0 °F 48% 29.88 in 10.0 mi South 8.1 mph - N/A   Clear
8:53 PM 73.9 °F - 55.9 °F 53% 29.89 in 10.0 mi SSW 9.2 mph - N/A   Clear
9:53 PM 72.0 °F - 57.0 °F 59% 29.90 in 10.0 mi South 6.9 mph - N/A   Clear
10:53 PM 71.1 °F - 57.9 °F 63% 29.90 in 10.0 mi South 8.1 mph - N/A   Clear
11:53 PM 66.0 °F - 57.9 °F 75% 29.91 in 10.0 mi South 3.5 mph - N/A   Clear